EW9943 Weather Reports


Display with metric or nautical units.
time (UTC)temp
F
wind
direction
speed
MPH
gust
MPH
rain 1hr
in
rain 24hr
in
rain mn
in
humidity
%
barometer
mb
20260508060116 46 327 5.0 10.0 0.00 0.00 0.00 53 1004.0
20260508054638 46 336 3.0 10.0 0.00 0.01 0.00 54 1004.3
20260508053054 46 10 2.0 10.0 0.00 0.01 0.00 57 1004.3
20260508051550 46 360 3.0 9.0 0.00 0.01 0.00 60 1004.2
20260508050049 47 326 2.0 9.0 0.00 0.01 0.00 52 1004.5
20260508044546 47 360 2.0 9.0 0.00 0.09 0.00 51 1004.7
20260508043047 47 324 2.0 8.0 0.00 0.09 0.00 52 1004.7
20260508041544 47 325 1.0 6.0 0.00 0.09 0.00 53 1004.7
20260508040039 46 5 1.0 3.0 0.00 0.09 0.00 54 1004.8
20260508034546 47 9 1.0 6.0 0.00 0.09 0.09 53 1004.8
20260508033037 47 348 0.0 4.0 0.00 0.09 0.09 53 1004.7
20260508031536 48 345 2.0 6.0 0.00 0.09 0.09 50 1004.7
20260508030039 48 336 1.0 4.0 0.00 0.09 0.09 51 1004.8
20260508024542 49 5 0.0 5.0 0.00 0.09 0.09 51 1004.8
20260508023034 50 341 4.0 10.0 0.00 0.09 0.09 50 1004.5
20260508021534 50 355 3.0 9.0 0.00 0.09 0.09 51 1004.4
20260508020034 50 13 2.0 11.0 0.00 0.09 0.09 49 1004.2
20260508014537 51 342 5.0 12.0 0.00 0.10 0.09 48 1004.0
20260508013032 51 30 2.0 8.0 0.00 0.10 0.09 50 1003.8
20260508011534 51 34 2.0 5.0 0.00 0.10 0.09 51 1003.9
20260508010045 51 9 1.0 6.0 0.00 0.10 0.09 51 1003.8
20260508004532 52 26 2.0 9.0 0.00 0.13 0.09 50 1003.4
20260508003027 51 344 1.0 5.0 0.00 0.13 0.09 56 1003.0
20260508001524 49 360 0.0 2.0 0.00 0.13 0.09 76 1002.9
20260508000023 48 294 1.0 5.0 0.00 0.13 0.09 81 1002.7
20260507234523 47 251 1.0 4.0 0.00 0.17 0.09 85 1002.7
20260507233023 47 211 0.0 5.0 0.00 0.17 0.09 85 1002.6
20260507231523 47 230 7.0 9.0 0.00 0.17 0.09 85 1002.3
20260507230026 48 242 6.0 10.0 0.00 0.17 0.09 84 1002.1
20260507224522 48 240 10.0 14.0 0.00 0.28 0.09 83 1001.9
20260507223021 49 236 11.0 12.0 0.00 0.28 0.09 80 1001.7
20260507221520 49 245 11.0 15.0 0.00 0.28 0.09 81 1001.5
20260507220020 49 237 14.0 18.0 0.00 0.28 0.09 82 1001.5
20260507214521 49 237 14.0 19.0 0.00 0.38 0.09 81 1001.5
20260507213019 49 231 16.0 20.0 0.00 0.38 0.09 80 1001.5
20260507211532 49 235 17.0 21.0 0.00 0.38 0.09 81 1001.5
20260507210018 49 234 16.0 19.0 0.00 0.38 0.09 81 1001.3
20260507204522 49 236 15.0 20.0 0.00 0.40 0.09 81 1001.2
20260507203021 49 237 17.0 19.0 0.00 0.40 0.09 81 1001.1
20260507201516 49 238 16.0 20.0 0.00 0.40 0.09 82 1001.2
20260507200016 49 239 16.0 19.0 0.00 0.40 0.09 81 1001.3
20260507194515 49 239 14.0 17.0 0.00 0.42 0.09 81 1001.5
20260507193013 49 229 14.0 17.0 0.00 0.42 0.09 81 1001.6
20260507191513 49 225 13.0 17.0 0.00 0.42 0.09 81 1001.7
20260507190014 49 227 12.0 15.0 0.00 0.42 0.09 80 1001.7
20260507184514 49 229 12.0 16.0 0.00 0.42 0.09 79 1001.9
20260507183028 49 229 13.0 16.0 0.00 0.42 0.09 82 1002.1
20260507181511 49 240 13.0 17.0 0.00 0.42 0.09 82 1002.1
20260507180010 49 240 12.0 15.0 0.00 0.42 0.09 81 1002.2
20260507174515 49 245 12.0 16.0 0.00 0.42 0.09 82 1002.4
20260507173010 49 253 14.0 18.0 0.00 0.42 0.09 83 1002.5
20260507171509 48 244 14.0 17.0 0.00 0.42 0.09 86 1002.5
20260507170009 48 243 13.0 15.0 0.00 0.42 0.09 87 1002.4
20260507164508 48 234 14.0 17.0 0.00 0.42 0.09 86 1002.5
20260507163008 49 221 11.0 16.0 0.00 0.42 0.09 84 1002.6
20260507161508 49 244 15.0 17.0 0.00 0.42 0.09 82 1002.7
20260507160017 49 244 16.0 18.0 0.00 0.42 0.09 80 1002.9
20260507154507 48 240 14.0 16.0 0.00 0.42 0.09 82 1003.1
20260507153007 49 231 9.0 12.0 0.00 0.42 0.09 82 1003.2
20260507151505 48 238 9.0 11.0 0.00 0.42 0.09 84 1003.3
20260507150005 48 233 6.0 8.0 0.00 0.42 0.09 86 1003.3
20260507144501 48 226 4.0 7.0 0.00 0.42 0.09 87 1003.5
20260507143100 48 217 5.0 8.0 0.00 0.42 0.09 86 1003.5
20260507141559 48 230 7.0 9.0 0.00 0.42 0.09 87 1003.7
20260507140105 48 236 6.0 7.0 0.00 0.42 0.09 87 1003.9
20260507134551 48 223 5.0 6.0 0.00 0.42 0.09 82 1003.7
20260507133046 51 257 2.0 3.0 0.00 0.42 0.09 77 1003.8
20260507131542 50 264 2.0 3.0 0.00 0.42 0.09 78 1003.9
20260507130049 50 299 1.0 2.0 0.00 0.42 0.09 82 1004.1
20260507124547 50 346 0.0 2.0 0.00 0.42 0.09 87 1004.3
20260507123030 49 336 3.0 6.0 0.00 0.42 0.09 83 1004.0
20260507121524 48 326 3.0 5.0 0.00 0.42 0.09 85 1004.2
20260507120023 48 328 2.0 5.0 0.00 0.42 0.09 86 1003.9
20260507114519 48 325 1.0 3.0 0.00 0.42 0.09 90 1004.1
20260507113019 47 360 0.0 2.0 0.00 0.42 0.09 89 1004.0
20260507111518 47 360 0.0 2.0 0.00 0.42 0.09 90 1004.3
20260507110027 46 360 0.0 2.0 0.00 0.42 0.09 90 1004.4
20260507104515 46 298 0.0 2.0 0.00 0.42 0.09 90 1004.6
20260507103013 46 304 1.0 2.0 0.00 0.42 0.09 90 1004.8
20260507101512 46 339 0.0 2.0 0.00 0.42 0.09 91 1004.0
20260507100018 46 315 0.0 3.0 0.00 0.42 0.09 91 1004.1
20260507094509 46 327 3.0 6.0 0.00 0.42 0.09 91 1003.7
20260507093009 46 355 3.0 8.0 0.00 0.42 0.09 91 1003.3
20260507091507 47 360 3.0 5.0 0.00 0.42 0.09 92 1003.7
20260507090007 47 355 1.0 5.0 0.00 0.42 0.09 92 1003.8
20260507084508 48 336 2.0 6.0 0.00 0.42 0.09 92 1003.6
20260507083003 48 355 1.0 5.0 0.00 0.42 0.09 93 1003.5
20260507081505 48 351 0.0 4.0 0.00 0.42 0.09 93 1003.4
20260507080001 48 328 2.0 9.0 0.00 0.42 0.09 93 1003.4
20260507074615 48 334 2.0 6.0 0.00 0.42 0.09 94 1003.4
20260507073059 48 355 1.0 4.0 0.00 0.42 0.09 93 1003.0
20260507071556 48 345 1.0 3.0 0.00 0.42 0.09 94 1002.7
20260507070106 48 327 0.0 3.0 0.00 0.42 0.09 94 1002.3
20260507064604 48 338 2.0 4.0 0.01 0.42 0.09 94 1002.3
20260507063058 49 346 3.0 10.0 0.01 0.42 0.09 94 1002.5
20260507061552 49 360 3.0 12.0 0.01 0.42 0.09 94 1002.3